2020,01,07,00,00,00,199.1,,,,,,,,,,,,,,
2020,01,07,00,01,00,202.4,,,,,,,,,,,,,,
2020,01,07,00,02,00,175.8,,,,,,,,,,,,,,
2020,01,07,00,03,00,153.2,,,,,,,,,,,,,,
2020,01,07,00,04,00,152.1,,,,,,,,,,,,,,
2020,01,07,00,05,00,155.9,,,,,,,,,,,,,,
2020,01,07,00,06,00,152.5,,,,,,,,,,,,,,
2020,01,07,00,07,00,151.1,,,,,,,,,,,,,,
2020,01,07,00,08,00,146.1,,,,,,,,,,,,,,
2020,01,07,00,09,00,145.4,,,,,,,,,,,,,,
2020,01,07,00,10,00,146.8,,,,,,,,,,,,,,
2020,01,07,00,11,00,146.8,,,,,,,,,,,,,,
2020,01,07,00,12,00,140.8,,,,,,,,,,,,,,
2020,01,07,00,13,00,141.0,,,,,,,,,,,,,,
2020,01,07,00,14,00,143.9,,,,,,,,,,,,,,
2020,01,07,00,15,00,148.5,,,,,,,,,,,,,,
2020,01,07,00,16,00,167.5,,,,,,,,,,,,,,
2020,01,07,00,17,00,182.3,,,,,,,,,,,,,,
2020,01,07,00,18,00,162.1,,,,,,,,,,,,,,
2020,01,07,00,19,00,149.2,,,,,,,,,,,,,,
2020,01,07,00,20,00,146.7,,,,,,,,,,,,,,
2020,01,07,00,21,00,150.4,,,,,,,,,,,,,,
2020,01,07,00,22,00,164.9,,,,,,,,,,,,,,
2020,01,07,00,23,00,170.8,,,,,,,,,,,,,,
2020,01,07,00,24,00,158.3,,,,,,,,,,,,,,
2020,01,07,00,25,00,153.0,,,,,,,,,,,,,,
2020,01,07,00,26,00,147.7,,,,,,,,,,,,,,
2020,01,07,00,27,00,145.7,,,,,,,,,,,,,,
2020,01,07,00,28,00,144.4,,,,,,,,,,,,,,
2020,01,07,00,29,00,154.1,,,,,,,,,,,,,,
2020,01,07,00,30,00,177.1,,,,,,,,,,,,,,
2020,01,07,00,31,00,155.9,,,,,,,,,,,,,,
2020,01,07,00,32,00,155.3,,,,,,,,,,,,,,
2020,01,07,00,33,00,148.1,,,,,,,,,,,,,,
2020,01,07,00,34,00,149.3,,,,,,,,,,,,,,
2020,01,07,00,35,00,148.3,,,,,,,,,,,,,,
2020,01,07,00,36,00,149.6,,,,,,,,,,,,,,
2020,01,07,00,37,00,149.9,,,,,,,,,,,,,,
2020,01,07,00,38,00,148.7,,,,,,,,,,,,,,
2020,01,07,00,39,00,148.2,,,,,,,,,,,,,,
2020,01,07,00,40,00,147.4,,,,,,,,,,,,,,
2020,01,07,00,41,00,151.5,,,,,,,,,,,,,,
2020,01,07,00,42,00,152.0,,,,,,,,,,,,,,
2020,01,07,00,43,00,149.4,,,,,,,,,,,,,,
2020,01,07,00,44,00,145.1,,,,,,,,,,,,,,
2020,01,07,00,45,00,138.9,,,,,,,,,,,,,,
2020,01,07,00,46,00,138.9,,,,,,,,,,,,,,
2020,01,07,00,47,00,144.2,,,,,,,,,,,,,,
2020,01,07,00,48,00,159.6,,,,,,,,,,,,,,
2020,01,07,00,49,00,171.7,,,,,,,,,,,,,,
2020,01,07,00,50,00,150.7,,,,,,,,,,,,,,
2020,01,07,00,51,00,147.2,,,,,,,,,,,,,,
2020,01,07,00,52,00,145.4,,,,,,,,,,,,,,
2020,01,07,00,53,00,150.5,,,,,,,,,,,,,,
2020,01,07,00,54,00,149.2,,,,,,,,,,,,,,
2020,01,07,00,55,00,145.9,,,,,,,,,,,,,,
2020,01,07,00,56,00,144.3,,,,,,,,,,,,,,
2020,01,07,00,57,00,154.2,,,,,,,,,,,,,,
2020,01,07,00,58,00,189.3,,,,,,,,,,,,,,
2020,01,07,00,59,00,189.4,,,,,,,,,,,,,,
2020,01,07,01,00,00,192.7,,,,,,,,,,,,,,
2020,01,07,01,01,00,181.3,,,,,,,,,,,,,,
2020,01,07,01,02,00,161.1,,,,,,,,,,,,,,
2020,01,07,01,03,00,167.3,,,,,,,,,,,,,,
2020,01,07,01,04,00,159.8,,,,,,,,,,,,,,
2020,01,07,01,05,00,152.0,,,,,,,,,,,,,,
2020,01,07,01,06,00,152.0,,,,,,,,,,,,,,
2020,01,07,01,07,00,152.1,,,,,,,,,,,,,,
2020,01,07,01,08,00,152.5,,,,,,,,,,,,,,
2020,01,07,01,09,00,152.1,,,,,,,,,,,,,,
2020,01,07,01,10,00,152.2,,,,,,,,,,,,,,
2020,01,07,01,11,00,152.1,,,,,,,,,,,,,,
2020,01,07,01,12,00,158.0,,,,,,,,,,,,,,
2020,01,07,01,13,00,173.5,,,,,,,,,,,,,,
2020,01,07,01,14,00,174.1,,,,,,,,,,,,,,
2020,01,07,01,15,00,184.4,,,,,,,,,,,,,,
2020,01,07,01,16,00,174.6,,,,,,,,,,,,,,
2020,01,07,01,17,00,158.0,,,,,,,,,,,,,,
2020,01,07,01,18,00,152.0,,,,,,,,,,,,,,
2020,01,07,01,19,00,150.8,,,,,,,,,,,,,,
2020,01,07,01,20,00,151.5,,,,,,,,,,,,,,
2020,01,07,01,21,00,152.0,,,,,,,,,,,,,,
2020,01,07,01,22,00,152.6,,,,,,,,,,,,,,
2020,01,07,01,23,00,157.0,,,,,,,,,,,,,,
2020,01,07,01,24,00,158.9,,,,,,,,,,,,,,
2020,01,07,01,25,00,153.4,,,,,,,,,,,,,,
2020,01,07,01,26,00,152.1,,,,,,,,,,,,,,
2020,01,07,01,27,00,152.1,,,,,,,,,,,,,,
2020,01,07,01,28,00,152.2,,,,,,,,,,,,,,
2020,01,07,01,29,00,159.0,,,,,,,,,,,,,,
2020,01,07,01,30,00,166.5,,,,,,,,,,,,,,
2020,01,07,01,31,00,171.9,,,,,,,,,,,,,,
2020,01,07,01,32,00,176.6,,,,,,,,,,,,,,
2020,01,07,01,33,00,157.7,,,,,,,,,,,,,,
2020,01,07,01,34,00,151.8,,,,,,,,,,,,,,
2020,01,07,01,35,00,150.8,,,,,,,,,,,,,,
2020,01,07,01,36,00,148.6,,,,,,,,,,,,,,
2020,01,07,01,37,00,147.3,,,,,,,,,,,,,,
2020,01,07,01,38,00,149.0,,,,,,,,,,,,,,
2020,01,07,01,39,00,149.4,,,,,,,,,,,,,,
2020,01,07,01,40,00,150.3,,,,,,,,,,,,,,
2020,01,07,01,41,00,147.9,,,,,,,,,,,,,,
2020,01,07,01,42,00,144.0,,,,,,,,,,,,,,
2020,01,07,01,43,00,143.2,,,,,,,,,,,,,,
2020,01,07,01,44,00,143.7,,,,,,,,,,,,,,
2020,01,07,01,45,00,143.2,,,,,,,,,,,,,,
2020,01,07,01,46,00,146.3,,,,,,,,,,,,,,
2020,01,07,01,47,00,151.1,,,,,,,,,,,,,,
2020,01,07,01,48,00,157.0,,,,,,,,,,,,,,
2020,01,07,01,49,00,155.0,,,,,,,,,,,,,,
2020,01,07,01,50,00,151.2,,,,,,,,,,,,,,
2020,01,07,01,51,00,165.9,,,,,,,,,,,,,,
2020,01,07,01,52,00,231.1,,,,,,,,,,,,,,
2020,01,07,01,53,00,207.1,,,,,,,,,,,,,,
2020,01,07,01,54,00,170.8,,,,,,,,,,,,,,
2020,01,07,01,55,00,152.6,,,,,,,,,,,,,,
2020,01,07,01,56,00,153.2,,,,,,,,,,,,,,
2020,01,07,01,57,00,152.8,,,,,,,,,,,,,,
2020,01,07,01,58,00,170.4,,,,,,,,,,,,,,
2020,01,07,01,59,00,177.9,,,,,,,,,,,,,,
2020,01,07,02,00,00,187.2,,,,,,,,,,,,,,
2020,01,07,02,01,00,171.1,,,,,,,,,,,,,,
2020,01,07,02,02,00,173.4,,,,,,,,,,,,,,
2020,01,07,02,03,00,158.0,,,,,,,,,,,,,,
2020,01,07,02,04,00,155.5,,,,,,,,,,,,,,
2020,01,07,02,05,00,154.0,,,,,,,,,,,,,,
2020,01,07,02,06,00,152.1,,,,,,,,,,,,,,
2020,01,07,02,07,00,153.0,,,,,,,,,,,,,,
2020,01,07,02,08,00,152.2,,,,,,,,,,,,,,
2020,01,07,02,09,00,151.6,,,,,,,,,,,,,,
2020,01,07,02,10,00,151.9,,,,,,,,,,,,,,
2020,01,07,02,11,00,162.4,,,,,,,,,,,,,,
2020,01,07,02,12,00,157.8,,,,,,,,,,,,,,
2020,01,07,02,13,00,152.6,,,,,,,,,,,,,,
2020,01,07,02,14,00,178.8,,,,,,,,,,,,,,
2020,01,07,02,15,00,181.9,,,,,,,,,,,,,,
2020,01,07,02,16,00,159.4,,,,,,,,,,,,,,
2020,01,07,02,17,00,150.6,,,,,,,,,,,,,,
2020,01,07,02,18,00,150.0,,,,,,,,,,,,,,
2020,01,07,02,19,00,153.2,,,,,,,,,,,,,,
2020,01,07,02,20,00,153.0,,,,,,,,,,,,,,
2020,01,07,02,21,00,160.2,,,,,,,,,,,,,,
2020,01,07,02,22,00,177.6,,,,,,,,,,,,,,
2020,01,07,02,23,00,212.9,,,,,,,,,,,,,,
2020,01,07,02,24,00,176.0,,,,,,,,,,,,,,
2020,01,07,02,25,00,159.2,,,,,,,,,,,,,,
2020,01,07,02,26,00,151.3,,,,,,,,,,,,,,
2020,01,07,02,27,00,151.1,,,,,,,,,,,,,,
2020,01,07,02,28,00,149.9,,,,,,,,,,,,,,
2020,01,07,02,29,00,161.3,,,,,,,,,,,,,,
2020,01,07,02,30,00,158.3,,,,,,,,,,,,,,
2020,01,07,02,31,00,151.9,,,,,,,,,,,,,,
2020,01,07,02,32,00,155.1,,,,,,,,,,,,,,
2020,01,07,02,33,00,155.4,,,,,,,,,,,,,,
2020,01,07,02,34,00,176.4,,,,,,,,,,,,,,
2020,01,07,02,35,00,175.5,,,,,,,,,,,,,,
2020,01,07,02,36,00,173.5,,,,,,,,,,,,,,
2020,01,07,02,37,00,172.6,,,,,,,,,,,,,,
2020,01,07,02,38,00,163.1,,,,,,,,,,,,,,
2020,01,07,02,39,00,153.8,,,,,,,,,,,,,,
2020,01,07,02,40,00,152.1,,,,,,,,,,,,,,
2020,01,07,02,41,00,152.0,,,,,,,,,,,,,,
2020,01,07,02,42,00,156.3,,,,,,,,,,,,,,
2020,01,07,02,43,00,158.7,,,,,,,,,,,,,,
2020,01,07,02,44,00,147.5,,,,,,,,,,,,,,
2020,01,07,02,45,00,151.4,,,,,,,,,,,,,,
2020,01,07,02,46,00,150.7,,,,,,,,,,,,,,
2020,01,07,02,47,00,151.3,,,,,,,,,,,,,,
2020,01,07,02,48,00,175.0,,,,,,,,,,,,,,
2020,01,07,02,49,00,212.7,,,,,,,,,,,,,,
2020,01,07,02,50,00,203.5,,,,,,,,,,,,,,
2020,01,07,02,51,00,157.3,,,,,,,,,,,,,,
2020,01,07,02,52,00,149.9,,,,,,,,,,,,,,
2020,01,07,02,53,00,148.9,,,,,,,,,,,,,,
2020,01,07,02,54,00,147.3,,,,,,,,,,,,,,
2020,01,07,02,55,00,146.6,,,,,,,,,,,,,,
2020,01,07,02,56,00,147.6,,,,,,,,,,,,,,
2020,01,07,02,57,00,148.4,,,,,,,,,,,,,,
2020,01,07,02,58,00,151.4,,,,,,,,,,,,,,
2020,01,07,02,59,00,151.8,,,,,,,,,,,,,,
2020,01,07,03,00,00,151.8,,,,,,,,,,,,,,
2020,01,07,03,01,00,156.1,,,,,,,,,,,,,,
2020,01,07,03,02,00,185.7,,,,,,,,,,,,,,
2020,01,07,03,03,00,176.5,,,,,,,,,,,,,,
2020,01,07,03,04,00,193.2,,,,,,,,,,,,,,
2020,01,07,03,05,00,167.5,,,,,,,,,,,,,,
2020,01,07,03,06,00,163.3,,,,,,,,,,,,,,
2020,01,07,03,07,00,152.0,,,,,,,,,,,,,,
2020,01,07,03,08,00,155.2,,,,,,,,,,,,,,
2020,01,07,03,09,00,157.7,,,,,,,,,,,,,,
2020,01,07,03,10,00,171.6,,,,,,,,,,,,,,
2020,01,07,03,11,00,175.0,,,,,,,,,,,,,,
2020,01,07,03,12,00,194.7,,,,,,,,,,,,,,
2020,01,07,03,13,00,158.9,,,,,,,,,,,,,,
2020,01,07,03,14,00,151.6,,,,,,,,,,,,,,
2020,01,07,03,15,00,159.3,,,,,,,,,,,,,,
2020,01,07,03,16,00,161.9,,,,,,,,,,,,,,
2020,01,07,03,17,00,168.4,,,,,,,,,,,,,,
2020,01,07,03,18,00,155.5,,,,,,,,,,,,,,
2020,01,07,03,19,00,160.2,,,,,,,,,,,,,,
2020,01,07,03,20,00,151.0,,,,,,,,,,,,,,
2020,01,07,03,21,00,149.6,,,,,,,,,,,,,,
2020,01,07,03,22,00,163.6,,,,,,,,,,,,,,
2020,01,07,03,23,00,168.5,,,,,,,,,,,,,,
2020,01,07,03,24,00,176.7,,,,,,,,,,,,,,
2020,01,07,03,25,00,154.1,,,,,,,,,,,,,,
2020,01,07,03,26,00,150.7,,,,,,,,,,,,,,
2020,01,07,03,27,00,144.2,,,,,,,,,,,,,,
2020,01,07,03,28,00,146.4,,,,,,,,,,,,,,
2020,01,07,03,29,00,151.8,,,,,,,,,,,,,,
2020,01,07,03,30,00,161.8,,,,,,,,,,,,,,
2020,01,07,03,31,00,196.6,,,,,,,,,,,,,,
2020,01,07,03,32,00,254.9,,,,,,,,,,,,,,
2020,01,07,03,33,00,179.4,,,,,,,,,,,,,,
2020,01,07,03,34,00,151.6,,,,,,,,,,,,,,
2020,01,07,03,35,00,150.6,,,,,,,,,,,,,,
2020,01,07,03,36,00,148.2,,,,,,,,,,,,,,
2020,01,07,03,37,00,144.7,,,,,,,,,,,,,,
2020,01,07,03,38,00,148.2,,,,,,,,,,,,,,
2020,01,07,03,39,00,165.6,,,,,,,,,,,,,,
2020,01,07,03,40,00,167.6,,,,,,,,,,,,,,
2020,01,07,03,41,00,156.5,,,,,,,,,,,,,,
2020,01,07,03,42,00,164.1,,,,,,,,,,,,,,
2020,01,07,03,43,00,169.6,,,,,,,,,,,,,,
2020,01,07,03,44,00,159.3,,,,,,,,,,,,,,
2020,01,07,03,45,00,158.8,,,,,,,,,,,,,,
2020,01,07,03,46,00,150.9,,,,,,,,,,,,,,
2020,01,07,03,47,00,145.8,,,,,,,,,,,,,,
2020,01,07,03,48,00,148.0,,,,,,,,,,,,,,
2020,01,07,03,49,00,158.6,,,,,,,,,,,,,,
2020,01,07,03,50,00,197.5,,,,,,,,,,,,,,
2020,01,07,03,51,00,196.7,,,,,,,,,,,,,,
2020,01,07,03,52,00,167.9,,,,,,,,,,,,,,
2020,01,07,03,53,00,151.9,,,,,,,,,,,,,,
2020,01,07,03,54,00,151.8,,,,,,,,,,,,,,
2020,01,07,03,55,00,158.4,,,,,,,,,,,,,,
2020,01,07,03,56,00,156.8,,,,,,,,,,,,,,
2020,01,07,03,57,00,152.0,,,,,,,,,,,,,,
2020,01,07,03,58,00,151.3,,,,,,,,,,,,,,
2020,01,07,03,59,00,151.3,,,,,,,,,,,,,,
2020,01,07,04,00,00,149.4,,,,,,,,,,,,,,
2020,01,07,04,01,00,147.5,,,,,,,,,,,,,,
2020,01,07,04,02,00,150.0,,,,,,,,,,,,,,
2020,01,07,04,03,00,160.9,,,,,,,,,,,,,,
2020,01,07,04,04,00,154.4,,,,,,,,,,,,,,
2020,01,07,04,05,00,176.2,,,,,,,,,,,,,,
2020,01,07,04,06,00,171.7,,,,,,,,,,,,,,
2020,01,07,04,07,00,173.3,,,,,,,,,,,,,,
2020,01,07,04,08,00,175.3,,,,,,,,,,,,,,
2020,01,07,04,09,00,169.7,,,,,,,,,,,,,,
2020,01,07,04,10,00,167.9,,,,,,,,,,,,,,
2020,01,07,04,11,00,156.3,,,,,,,,,,,,,,
2020,01,07,04,12,00,148.9,,,,,,,,,,,,,,
2020,01,07,04,13,00,160.1,,,,,,,,,,,,,,
2020,01,07,04,14,00,169.9,,,,,,,,,,,,,,
2020,01,07,04,15,00,165.7,,,,,,,,,,,,,,
2020,01,07,04,16,00,168.5,,,,,,,,,,,,,,
2020,01,07,04,17,00,167.9,,,,,,,,,,,,,,
2020,01,07,04,18,00,179.7,,,,,,,,,,,,,,
2020,01,07,04,19,00,204.8,,,,,,,,,,,,,,
2020,01,07,04,20,00,189.8,,,,,,,,,,,,,,
2020,01,07,04,21,00,175.0,,,,,,,,,,,,,,
2020,01,07,04,22,00,174.2,,,,,,,,,,,,,,
2020,01,07,04,23,00,159.6,,,,,,,,,,,,,,
2020,01,07,04,24,00,152.3,,,,,,,,,,,,,,
2020,01,07,04,25,00,171.0,,,,,,,,,,,,,,
2020,01,07,04,26,00,190.6,,,,,,,,,,,,,,
2020,01,07,04,27,00,204.8,,,,,,,,,,,,,,
2020,01,07,04,28,00,191.4,,,,,,,,,,,,,,
2020,01,07,04,29,00,153.0,,,,,,,,,,,,,,
2020,01,07,04,30,00,165.6,,,,,,,,,,,,,,
2020,01,07,04,31,00,180.0,,,,,,,,,,,,,,
2020,01,07,04,32,00,167.5,,,,,,,,,,,,,,
2020,01,07,04,33,00,159.3,,,,,,,,,,,,,,
2020,01,07,04,34,00,173.0,,,,,,,,,,,,,,
2020,01,07,04,35,00,171.4,,,,,,,,,,,,,,
2020,01,07,04,36,00,158.3,,,,,,,,,,,,,,
2020,01,07,04,37,00,154.0,,,,,,,,,,,,,,
2020,01,07,04,38,00,152.7,,,,,,,,,,,,,,
2020,01,07,04,39,00,151.0,,,,,,,,,,,,,,
2020,01,07,04,40,00,151.7,,,,,,,,,,,,,,
2020,01,07,04,41,00,159.5,,,,,,,,,,,,,,
2020,01,07,04,42,00,170.8,,,,,,,,,,,,,,
2020,01,07,04,43,00,167.3,,,,,,,,,,,,,,
2020,01,07,04,44,00,152.2,,,,,,,,,,,,,,
2020,01,07,04,45,00,152.0,,,,,,,,,,,,,,
2020,01,07,04,46,00,153.5,,,,,,,,,,,,,,
2020,01,07,04,47,00,152.0,,,,,,,,,,,,,,
2020,01,07,04,48,00,165.7,,,,,,,,,,,,,,
2020,01,07,04,49,00,175.2,,,,,,,,,,,,,,
2020,01,07,04,50,00,213.8,,,,,,,,,,,,,,
2020,01,07,04,51,00,222.3,,,,,,,,,,,,,,
2020,01,07,04,52,00,203.3,,,,,,,,,,,,,,
2020,01,07,04,53,00,193.4,,,,,,,,,,,,,,
2020,01,07,04,54,00,175.3,,,,,,,,,,,,,,
2020,01,07,04,55,00,167.4,,,,,,,,,,,,,,
2020,01,07,04,56,00,173.6,,,,,,,,,,,,,,
2020,01,07,04,57,00,174.1,,,,,,,,,,,,,,
2020,01,07,04,58,00,174.4,,,,,,,,,,,,,,
2020,01,07,04,59,00,171.8,,,,,,,,,,,,,,
2020,01,07,05,00,00,167.7,,,,,,,,,,,,,,
2020,01,07,05,01,00,192.3,,,,,,,,,,,,,,
2020,01,07,05,02,00,211.4,,,,,,,,,,,,,,
2020,01,07,05,03,00,186.0,,,,,,,,,,,,,,
2020,01,07,05,04,00,192.7,,,,,,,,,,,,,,
2020,01,07,05,05,00,227.1,,,,,,,,,,,,,,
2020,01,07,05,06,00,224.2,,,,,,,,,,,,,,
2020,01,07,05,07,00,192.4,,,,,,,,,,,,,,
2020,01,07,05,08,00,164.5,,,,,,,,,,,,,,
2020,01,07,05,09,00,152.5,,,,,,,,,,,,,,
2020,01,07,05,10,00,161.0,,,,,,,,,,,,,,
2020,01,07,05,11,00,165.7,,,,,,,,,,,,,,
2020,01,07,05,12,00,161.4,,,,,,,,,,,,,,
2020,01,07,05,13,00,154.0,,,,,,,,,,,,,,
2020,01,07,05,14,00,151.7,,,,,,,,,,,,,,
2020,01,07,05,15,00,151.4,,,,,,,,,,,,,,
2020,01,07,05,16,00,149.8,,,,,,,,,,,,,,
2020,01,07,05,17,00,146.4,,,,,,,,,,,,,,
2020,01,07,05,18,00,144.5,,,,,,,,,,,,,,
2020,01,07,05,19,00,153.9,,,,,,,,,,,,,,
2020,01,07,05,20,00,148.0,,,,,,,,,,,,,,
2020,01,07,05,21,00,148.7,,,,,,,,,,,,,,
2020,01,07,05,22,00,148.8,,,,,,,,,,,,,,
2020,01,07,05,23,00,150.9,,,,,,,,,,,,,,
2020,01,07,05,24,00,152.0,,,,,,,,,,,,,,
2020,01,07,05,25,00,187.0,,,,,,,,,,,,,,
2020,01,07,05,26,00,172.7,,,,,,,,,,,,,,
2020,01,07,05,27,00,174.5,,,,,,,,,,,,,,
2020,01,07,05,28,00,162.4,,,,,,,,,,,,,,
2020,01,07,05,29,00,162.1,,,,,,,,,,,,,,
2020,01,07,05,30,00,153.9,,,,,,,,,,,,,,
2020,01,07,05,31,00,174.5,,,,,,,,,,,,,,
2020,01,07,05,32,00,187.8,,,,,,,,,,,,,,
2020,01,07,05,33,00,177.7,,,,,,,,,,,,,,
2020,01,07,05,34,00,156.5,,,,,,,,,,,,,,
2020,01,07,05,35,00,153.3,,,,,,,,,,,,,,
2020,01,07,05,36,00,154.3,,,,,,,,,,,,,,
2020,01,07,05,37,00,163.9,,,,,,,,,,,,,,
2020,01,07,05,38,00,161.8,,,,,,,,,,,,,,
2020,01,07,05,39,00,152.2,,,,,,,,,,,,,,
2020,01,07,05,40,00,158.1,,,,,,,,,,,,,,
2020,01,07,05,41,00,156.8,,,,,,,,,,,,,,
2020,01,07,05,42,00,150.2,,,,,,,,,,,,,,
2020,01,07,05,43,00,146.7,,,,,,,,,,,,,,
2020,01,07,05,44,00,147.5,,,,,,,,,,,,,,
2020,01,07,05,45,00,152.5,,,,,,,,,,,,,,
2020,01,07,05,46,00,173.2,,,,,,,,,,,,,,
2020,01,07,05,47,00,175.2,,,,,,,,,,,,,,
2020,01,07,05,48,00,187.8,,,,,,,,,,,,,,
2020,01,07,05,49,00,168.9,,,,,,,,,,,,,,
2020,01,07,05,50,00,151.2,,,,,,,,,,,,,,
2020,01,07,05,51,00,148.5,,,,,,,,,,,,,,
2020,01,07,05,52,00,152.3,,,,,,,,,,,,,,
2020,01,07,05,53,00,180.1,,,,,,,,,,,,,,
2020,01,07,05,54,00,203.1,,,,,,,,,,,,,,
2020,01,07,05,55,00,190.5,,,,,,,,,,,,,,
2020,01,07,05,56,00,166.3,,,,,,,,,,,,,,
2020,01,07,05,57,00,152.9,,,,,,,,,,,,,,
2020,01,07,05,58,00,151.8,,,,,,,,,,,,,,
2020,01,07,05,59,00,152.5,,,,,,,,,,,,,,
2020,01,07,06,00,00,169.6,,,,,,,,,,,,,,
2020,01,07,06,01,00,154.6,,,,,,,,,,,,,,
2020,01,07,06,02,00,151.4,,,,,,,,,,,,,,
2020,01,07,06,03,00,151.5,,,,,,,,,,,,,,
2020,01,07,06,04,00,163.7,,,,,,,,,,,,,,
2020,01,07,06,05,00,201.4,,,,,,,,,,,,,,
2020,01,07,06,06,00,177.4,,,,,,,,,,,,,,
2020,01,07,06,07,00,181.3,,,,,,,,,,,,,,
2020,01,07,06,08,00,187.4,,,,,,,,,,,,,,
2020,01,07,06,09,00,166.9,,,,,,,,,,,,,,
2020,01,07,06,10,00,152.1,,,,,,,,,,,,,,
2020,01,07,06,11,00,169.2,,,,,,,,,,,,,,
2020,01,07,06,12,00,212.7,,,,,,,,,,,,,,
2020,01,07,06,13,00,197.4,,,,,,,,,,,,,,
2020,01,07,06,14,00,193.4,,,,,,,,,,,,,,
2020,01,07,06,15,00,216.6,,,,,,,,,,,,,,
2020,01,07,06,16,00,212.6,,,,,,,,,,,,,,
2020,01,07,06,17,00,204.1,,,,,,,,,,,,,,
2020,01,07,06,18,00,216.6,,,,,,,,,,,,,,
2020,01,07,06,19,00,209.7,,,,,,,,,,,,,,
2020,01,07,06,20,00,197.5,,,,,,,,,,,,,,
2020,01,07,06,21,00,189.1,,,,,,,,,,,,,,
2020,01,07,06,22,00,189.6,,,,,,,,,,,,,,
2020,01,07,06,23,00,179.1,,,,,,,,,,,,,,
2020,01,07,06,24,00,169.7,,,,,,,,,,,,,,
2020,01,07,06,25,00,167.6,,,,,,,,,,,,,,
2020,01,07,06,26,00,153.4,,,,,,,,,,,,,,
2020,01,07,06,27,00,152.7,,,,,,,,,,,,,,
2020,01,07,06,28,00,163.0,,,,,,,,,,,,,,
2020,01,07,06,29,00,164.8,,,,,,,,,,,,,,
2020,01,07,06,30,00,172.3,,,,,,,,,,,,,,
2020,01,07,06,31,00,188.6,,,,,,,,,,,,,,
2020,01,07,06,32,00,213.6,,,,,,,,,,,,,,
2020,01,07,06,33,00,236.7,,,,,,,,,,,,,,
2020,01,07,06,34,00,218.1,,,,,,,,,,,,,,
2020,01,07,06,35,00,183.9,,,,,,,,,,,,,,
2020,01,07,06,36,00,171.1,,,,,,,,,,,,,,
2020,01,07,06,37,00,152.5,,,,,,,,,,,,,,
2020,01,07,06,38,00,157.8,,,,,,,,,,,,,,
2020,01,07,06,39,00,175.1,,,,,,,,,,,,,,
2020,01,07,06,40,00,219.6,,,,,,,,,,,,,,
2020,01,07,06,41,00,245.9,,,,,,,,,,,,,,
2020,01,07,06,42,00,188.4,,,,,,,,,,,,,,
2020,01,07,06,43,00,170.7,,,,,,,,,,,,,,
2020,01,07,06,44,00,172.4,,,,,,,,,,,,,,
2020,01,07,06,45,00,170.7,,,,,,,,,,,,,,
2020,01,07,06,46,00,176.2,,,,,,,,,,,,,,
2020,01,07,06,47,00,213.4,,,,,,,,,,,,,,
2020,01,07,06,48,00,295.1,,,,,,,,,,,,,,
2020,01,07,06,49,00,226.6,,,,,,,,,,,,,,
2020,01,07,06,50,00,173.3,,,,,,,,,,,,,,
2020,01,07,06,51,00,157.9,,,,,,,,,,,,,,
2020,01,07,06,52,00,152.3,,,,,,,,,,,,,,
2020,01,07,06,53,00,161.1,,,,,,,,,,,,,,
2020,01,07,06,54,00,204.2,,,,,,,,,,,,,,
2020,01,07,06,55,00,213.6,,,,,,,,,,,,,,
2020,01,07,06,56,00,230.7,,,,,,,,,,,,,,
2020,01,07,06,57,00,203.1,,,,,,,,,,,,,,
2020,01,07,06,58,00,176.1,,,,,,,,,,,,,,
2020,01,07,06,59,00,177.7,,,,,,,,,,,,,,
2020,01,07,07,00,00,168.5,,,,,,,,,,,,,,
2020,01,07,07,01,00,187.3,,,,,,,,,,,,,,
2020,01,07,07,02,00,190.8,,,,,,,,,,,,,,
2020,01,07,07,03,00,174.5,,,,,,,,,,,,,,
2020,01,07,07,04,00,174.0,,,,,,,,,,,,,,
2020,01,07,07,05,00,154.6,,,,,,,,,,,,,,
2020,01,07,07,06,00,152.1,,,,,,,,,,,,,,
2020,01,07,07,07,00,161.9,,,,,,,,,,,,,,
2020,01,07,07,08,00,179.1,,,,,,,,,,,,,,
2020,01,07,07,09,00,204.0,,,,,,,,,,,,,,
2020,01,07,07,10,00,197.6,,,,,,,,,,,,,,
2020,01,07,07,11,00,180.6,,,,,,,,,,,,,,
2020,01,07,07,12,00,173.0,,,,,,,,,,,,,,
2020,01,07,07,13,00,172.9,,,,,,,,,,,,,,
2020,01,07,07,14,00,164.2,,,,,,,,,,,,,,
2020,01,07,07,15,00,174.7,,,,,,,,,,,,,,
2020,01,07,07,16,00,171.3,,,,,,,,,,,,,,
2020,01,07,07,17,00,169.4,,,,,,,,,,,,,,
2020,01,07,07,18,00,163.9,,,,,,,,,,,,,,
2020,01,07,07,19,00,169.2,,,,,,,,,,,,,,
2020,01,07,07,20,00,178.1,,,,,,,,,,,,,,
2020,01,07,07,21,00,201.3,,,,,,,,,,,,,,
2020,01,07,07,22,00,210.2,,,,,,,,,,,,,,
2020,01,07,07,23,00,194.1,,,,,,,,,,,,,,
2020,01,07,07,24,00,176.4,,,,,,,,,,,,,,
2020,01,07,07,25,00,168.5,,,,,,,,,,,,,,
2020,01,07,07,26,00,160.0,,,,,,,,,,,,,,
2020,01,07,07,27,00,159.3,,,,,,,,,,,,,,
2020,01,07,07,28,00,174.8,,,,,,,,,,,,,,
2020,01,07,07,29,00,175.2,,,,,,,,,,,,,,
2020,01,07,07,30,00,170.2,,,,,,,,,,,,,,
2020,01,07,07,31,00,171.7,,,,,,,,,,,,,,
2020,01,07,07,32,00,198.3,,,,,,,,,,,,,,
2020,01,07,07,33,00,213.0,,,,,,,,,,,,,,
2020,01,07,07,34,00,180.6,,,,,,,,,,,,,,
2020,01,07,07,35,00,186.8,,,,,,,,,,,,,,
2020,01,07,07,36,00,183.4,,,,,,,,,,,,,,
2020,01,07,07,37,00,211.8,,,,,,,,,,,,,,
2020,01,07,07,38,00,231.5,,,,,,,,,,,,,,
2020,01,07,07,39,00,197.4,,,,,,,,,,,,,,
2020,01,07,07,40,00,193.9,,,,,,,,,,,,,,
2020,01,07,07,41,00,198.3,,,,,,,,,,,,,,
2020,01,07,07,42,00,213.8,,,,,,,,,,,,,,
2020,01,07,07,43,00,243.1,,,,,,,,,,,,,,
2020,01,07,07,44,00,252.7,,,,,,,,,,,,,,
2020,01,07,07,45,00,242.4,,,,,,,,,,,,,,
2020,01,07,07,46,00,216.3,,,,,,,,,,,,,,
2020,01,07,07,47,00,200.6,,,,,,,,,,,,,,
2020,01,07,07,48,00,185.5,,,,,,,,,,,,,,
2020,01,07,07,49,00,202.8,,,,,,,,,,,,,,
2020,01,07,07,50,00,201.7,,,,,,,,,,,,,,
2020,01,07,07,51,00,195.6,,,,,,,,,,,,,,
2020,01,07,07,52,00,186.2,,,,,,,,,,,,,,
2020,01,07,07,53,00,197.8,,,,,,,,,,,,,,
2020,01,07,07,54,00,221.3,,,,,,,,,,,,,,
2020,01,07,07,55,00,257.2,,,,,,,,,,,,,,
2020,01,07,07,56,00,295.8,,,,,,,,,,,,,,
2020,01,07,07,57,00,257.0,,,,,,,,,,,,,,
2020,01,07,07,58,00,215.9,,,,,,,,,,,,,,
2020,01,07,07,59,00,218.2,,,,,,,,,,,,,,
2020,01,07,08,00,00,220.5,,,,,,,,,,,,,,
2020,01,07,08,01,00,259.7,,,,,,,,,,,,,,
2020,01,07,08,02,00,202.2,,,,,,,,,,,,,,
2020,01,07,08,03,00,202.3,,,,,,,,,,,,,,
2020,01,07,08,04,00,206.6,,,,,,,,,,,,,,
2020,01,07,08,05,00,244.0,,,,,,,,,,,,,,
2020,01,07,08,06,00,245.3,,,,,,,,,,,,,,
2020,01,07,08,07,00,232.8,,,,,,,,,,,,,,
2020,01,07,08,08,00,284.9,,,,,,,,,,,,,,
2020,01,07,08,09,00,235.1,,,,,,,,,,,,,,
2020,01,07,08,10,00,187.9,,,,,,,,,,,,,,
2020,01,07,08,11,00,178.7,,,,,,,,,,,,,,
2020,01,07,08,12,00,188.2,,,,,,,,,,,,,,
2020,01,07,08,13,00,188.0,,,,,,,,,,,,,,
2020,01,07,08,14,00,187.1,,,,,,,,,,,,,,
2020,01,07,08,15,00,193.6,,,,,,,,,,,,,,
2020,01,07,08,16,00,209.1,,,,,,,,,,,,,,
2020,01,07,08,17,00,227.4,,,,,,,,,,,,,,
2020,01,07,08,18,00,237.1,,,,,,,,,,,,,,
2020,01,07,08,19,00,243.4,,,,,,,,,,,,,,
2020,01,07,08,20,00,208.8,,,,,,,,,,,,,,
2020,01,07,08,21,00,196.4,,,,,,,,,,,,,,
2020,01,07,08,22,00,200.6,,,,,,,,,,,,,,
2020,01,07,08,23,00,201.2,,,,,,,,,,,,,,
2020,01,07,08,24,00,226.8,,,,,,,,,,,,,,
2020,01,07,08,25,00,216.5,,,,,,,,,,,,,,
2020,01,07,08,26,00,209.1,,,,,,,,,,,,,,
2020,01,07,08,27,00,237.1,,,,,,,,,,,,,,
2020,01,07,08,28,00,268.6,,,,,,,,,,,,,,
2020,01,07,08,29,00,314.9,,,,,,,,,,,,,,
2020,01,07,08,30,00,265.8,,,,,,,,,,,,,,
2020,01,07,08,31,00,248.8,,,,,,,,,,,,,,
2020,01,07,08,32,00,280.7,,,,,,,,,,,,,,
2020,01,07,08,33,00,252.3,,,,,,,,,,,,,,
2020,01,07,08,34,00,208.7,,,,,,,,,,,,,,
2020,01,07,08,35,00,207.3,,,,,,,,,,,,,,
2020,01,07,08,36,00,202.6,,,,,,,,,,,,,,
2020,01,07,08,37,00,201.2,,,,,,,,,,,,,,
2020,01,07,08,38,00,231.0,,,,,,,,,,,,,,
2020,01,07,08,39,00,347.1,,,,,,,,,,,,,,
2020,01,07,08,40,00,413.1,,,,,,,,,,,,,,
2020,01,07,08,41,00,346.0,,,,,,,,,,,,,,
2020,01,07,08,42,00,295.2,,,,,,,,,,,,,,
2020,01,07,08,43,00,266.1,,,,,,,,,,,,,,
2020,01,07,08,44,00,251.1,,,,,,,,,,,,,,
2020,01,07,08,45,00,253.5,,,,,,,,,,,,,,
2020,01,07,08,46,00,261.9,,,,,,,,,,,,,,
2020,01,07,08,47,00,261.9,,,,,,,,,,,,,,
2020,01,07,08,48,00,230.2,,,,,,,,,,,,,,
2020,01,07,08,49,00,246.3,,,,,,,,,,,,,,
2020,01,07,08,50,00,264.9,,,,,,,,,,,,,,
2020,01,07,08,51,00,282.1,,,,,,,,,,,,,,
2020,01,07,08,52,00,272.7,,,,,,,,,,,,,,
2020,01,07,08,53,00,280.6,,,,,,,,,,,,,,
2020,01,07,08,54,00,290.4,,,,,,,,,,,,,,
2020,01,07,08,55,00,257.5,,,,,,,,,,,,,,
2020,01,07,08,56,00,244.9,,,,,,,,,,,,,,
2020,01,07,08,57,00,238.9,,,,,,,,,,,,,,
2020,01,07,08,58,00,228.9,,,,,,,,,,,,,,
2020,01,07,08,59,00,229.4,,,,,,,,,,,,,,
2020,01,07,09,00,00,236.4,,,,,,,,,,,,,,
2020,01,07,09,01,00,244.5,,,,,,,,,,,,,,
2020,01,07,09,02,00,252.7,,,,,,,,,,,,,,
2020,01,07,09,03,00,233.6,,,,,,,,,,,,,,
2020,01,07,09,04,00,220.5,,,,,,,,,,,,,,
2020,01,07,09,05,00,221.5,,,,,,,,,,,,,,
2020,01,07,09,06,00,229.8,,,,,,,,,,,,,,
2020,01,07,09,07,00,250.3,,,,,,,,,,,,,,
2020,01,07,09,08,00,268.9,,,,,,,,,,,,,,
2020,01,07,09,09,00,258.8,,,,,,,,,,,,,,
2020,01,07,09,10,00,274.7,,,,,,,,,,,,,,
2020,01,07,09,11,00,258.0,,,,,,,,,,,,,,
2020,01,07,09,12,00,248.6,,,,,,,,,,,,,,
2020,01,07,09,13,00,282.1,,,,,,,,,,,,,,
2020,01,07,09,14,00,307.1,,,,,,,,,,,,,,
2020,01,07,09,15,00,267.4,,,,,,,,,,,,,,
2020,01,07,09,16,00,263.0,,,,,,,,,,,,,,
2020,01,07,09,17,00,342.0,,,,,,,,,,,,,,
2020,01,07,09,18,00,385.8,,,,,,,,,,,,,,
2020,01,07,09,19,00,360.7,,,,,,,,,,,,,,
2020,01,07,09,20,00,276.6,,,,,,,,,,,,,,
2020,01,07,09,21,00,275.0,,,,,,,,,,,,,,
2020,01,07,09,22,00,301.4,,,,,,,,,,,,,,
2020,01,07,09,23,00,356.1,,,,,,,,,,,,,,
2020,01,07,09,24,00,317.9,,,,,,,,,,,,,,
2020,01,07,09,25,00,269.6,,,,,,,,,,,,,,
2020,01,07,09,26,00,293.6,,,,,,,,,,,,,,
2020,01,07,09,27,00,382.6,,,,,,,,,,,,,,
2020,01,07,09,28,00,390.2,,,,,,,,,,,,,,
2020,01,07,09,29,00,325.0,,,,,,,,,,,,,,
2020,01,07,09,30,00,290.1,,,,,,,,,,,,,,
2020,01,07,09,31,00,273.7,,,,,,,,,,,,,,
2020,01,07,09,32,00,274.7,,,,,,,,,,,,,,
2020,01,07,09,33,00,330.9,,,,,,,,,,,,,,
2020,01,07,09,34,00,329.9,,,,,,,,,,,,,,
2020,01,07,09,35,00,315.6,,,,,,,,,,,,,,
2020,01,07,09,36,00,303.2,,,,,,,,,,,,,,
2020,01,07,09,37,00,309.7,,,,,,,,,,,,,,
2020,01,07,09,38,00,350.6,,,,,,,,,,,,,,
2020,01,07,09,39,00,419.9,,,,,,,,,,,,,,
2020,01,07,09,40,00,357.8,,,,,,,,,,,,,,
2020,01,07,09,41,00,374.2,,,,,,,,,,,,,,
2020,01,07,09,42,00,358.3,,,,,,,,,,,,,,
2020,01,07,09,43,00,310.4,,,,,,,,,,,,,,
2020,01,07,09,44,00,300.5,,,,,,,,,,,,,,